Home   Weather   Pond Inlet   Past weeks
Flag for Canada

Past Weather in Pond Inlet, Nunavut, Canada — Yesterday and Last 2 Weeks

Now
-9 °F

Clear.


Feels Like: -26 °F
Forecast: 0 / -13 °F
Wind: 8 mph from South

Location: Pond Inlet

Current Time: Nov 22, 2019 at 4:53:01 am

Latest Report: Nov 22, 2019 at 4:00 am


Visibility: 9 mi

Pressure: 29.97 "Hg

Humidity: 70%

Dew Point: -17 °F

Location of Pond InletLocation

Past Weather in Pond Inlet — Graph

°F

Pond Inlet Temperature Yesterday

Maximum temperature yesterday: -2 °F (at 1:00 am)
Minimum temperature yesterday: -11 °F (at 9:00 pm)
Average temperature yesterday: -5 °F

High & Low Weather Summary for the Past Weeks

 TemperatureHumidityPressure
High12 °F (Nov 7, 1:00 pm)100% (Nov 8, 6:00 pm)30.21 "Hg (Nov 8, 6:00 pm)
Low-13 °F (Nov 11, 10:19 pm)64% (Nov 16, 6:00 pm)29.10 "Hg (Nov 15, 3:54 am)
Average-2 °F83%29.81 "Hg
* Reported Nov 7 3:07 am — Nov 22 3:00 am, Pond Inlet. Weather by CustomWeather, © 2019

Note: Actual official high and low records may vary slightly from our data, if they occured in-between our weather recording intervals... More about our weather records

Advertising

Pond Inlet Weather History for the Previous 24 Hours

Scroll right to see more
 ConditionsComfort  
Time TempWeatherWind HumidityBarometerVisibility
3:00 am
Fri, Nov 22
-11 °FClear.8 mph76%29.99 "Hg9 mi
2:00 am-9 °FPassing clouds.8 mph84%29.99 "Hg7 mi
1:28 am-9 °FLight snow. Overcast.8 mph84%29.99 "Hg3 mi
1:25 am-9 °FLight snow. Overcast.7 mph84%29.99 "Hg2 mi
1:14 am-9 °FLight snow. Overcast.6 mph84%30.00 "Hg2 mi
1:04 am-8 °FIce fog.5 mph84%30.00 "Hg3 mi
12:27 am-11 °FPartly sunny.3 mph76%30.01 "Hg9 mi
12:10 am-9 °FScattered clouds.5 mph84%30.01 "Hg9 mi
12:00 am-13 °FPartly sunny.6 mph83%30.01 "Hg9 mi
11:36 pm
Thu, Nov 21
-11 °FIce fog.3 mph84%30.02 "Hg6 mi
11:05 pm-9 °FIce fog.3 mph84%30.03 "Hg2 mi
10:32 pm-11 °FPassing clouds.6 mph84%30.03 "Hg9 mi
10:00 pm-9 °FClear.5 mph84%30.04 "Hg9 mi
9:00 pm-11 °FClear.9 mph84%30.05 "Hg9 mi
8:00 pm-9 °FClear.7 mph84%30.06 "Hg9 mi
7:00 pm-9 °FPassing clouds.2 mph77%30.07 "Hg15 mi
6:00 pm-8 °FPassing clouds.3 mph77%30.09 "Hg15 mi
5:00 pm-8 °FScattered clouds.5 mph77%30.10 "Hg15 mi
4:00 pm-9 °FScattered clouds.8 mph77%30.11 "Hg15 mi
3:00 pm-9 °FScattered clouds.7 mph84%30.11 "Hg15 mi
2:00 pm-8 °FPartly sunny.9 mph84%30.12 "Hg15 mi
1:34 pm-4 °FPartly sunny.9 mph77%30.12 "Hg15 mi
1:00 pm-4 °FSnow flurries. Partly sunny.7 mph77%30.13 "Hg15 mi
12:00 pm-4 °FSnow flurries. Overcast.7 mph84%30.13 "Hg15 mi
11:00 am-4 °FSnow flurries. Overcast.7 mph84%30.14 "Hg15 mi
10:06 am-4 °FOvercast.6 mph84%30.14 "Hg9 mi
9:55 am-4 °FLight snow. Overcast.5 mph84%30.14 "Hg9 mi
9:00 am-4 °FOvercast.5 mph84%30.15 "Hg9 mi
8:00 am-2 °FOvercast.6 mph77%30.16 "Hg9 mi
7:00 am-2 °FOvercast.5 mph77%30.16 "Hg9 mi
6:28 am-2 °FOvercast.3 mph84%30.17 "Hg9 mi
6:00 am-4 °FLight snow. Overcast.5 mph84%30.17 "Hg9 mi
5:57 am-4 °FLight snow. Overcast.3 mph84%30.17 "Hg9 mi
5:25 am-2 °FLight snow. Overcast.3 mph77%30.17 "Hg9 mi
5:01 am-2 °FLight snow. Overcast.3 mph77%30.18 "Hg9 mi
4:00 am-4 °FOvercast.5 mph84%30.19 "Hg9 mi
Weather by CustomWeather, © 2019

See weather overview